[Iaude] MPEC V67: 2016 VH2 [a=1.59,e=0.35,i=7.1,H=25.0]

mpec at si.edu mpec at si.edu
Tue Nov 8 19:07:46 EST 2016


M.P.E.C. 2016-V67                                Issued 2016 Nov.  9, 00:03 UT
 
     The Minor Planet Electronic Circulars contain information on unusual
         minor planets and routine data on comets.  They are published
    on behalf of Division F of the International Astronomical Union by the
          Minor Planet Center, Smithsonian Astrophysical Observatory,
                          Cambridge, MA 02138, U.S.A.

             Prepared using the Tamkin Foundation Computer Network

                              MPC at CFA.HARVARD.EDU
            URL http://www.minorplanetcenter.net/    ISSN 1523-6714


                                   2016 VH2
 
Observations:
     K16V02H* C2016 11 06.15931 00 12 44.55 +33 04 02.2          20.3 VqEV067G96
     K16V02H  C2016 11 06.16359 00 12 47.89 +33 03 48.7          20.4 VqEV067G96
     K16V02H  C2016 11 06.18020 00 13 00.66 +33 02 57.6          20.6 VqEV067G96
     K16V02H  C2016 11 06.18698 00 13 05.84 +33 02 36.8          21.0 VqEV067G96
     K16V02H  C2016 11 06.26209 00 14 03.52 +32 58 37.3          20.8 VqEV067G96
     K16V02H  C2016 11 06.26540 00 14 06.07 +32 58 26.4          20.5 VqEV067G96
     K16V02H  C2016 11 06.26876 00 14 08.75 +32 58 15.1          20.2 VqEV067G96
     K16V02H  C2016 11 06.27216 00 14 11.31 +32 58 04.0          20.8 VqEV067G96
     K16V02H  C2016 11 07.08013 00 25 19.73 +32 13 51.2          20.6 RoEV067926
     K16V02H  C2016 11 07.08350 00 25 22.35 +32 13 40.8          20.0 RoEV067926
     K16V02H  C2016 11 07.08686 00 25 24.90 +32 13 30.3          20.7 RoEV067926
     K16V02H  C2016 11 07.12249 00 25 52.17 +32 11 32.9          20.4 VqEV067G96
     K16V02H  C2016 11 07.12290 00 25 52.48 +32 11 31.2          20.5 VqEV067G96
     K16V02H  C2016 11 07.12331 00 25 52.81 +32 11 30.3          21.3 VqEV067G96
     K16V02H  C2016 11 07.12372 00 25 53.10 +32 11 28.6          21.7 VqEV067G96
     K16V02H HC2016 11 07.15605 00 26 14.56 +32 09 27.5                UEV067H21
     K16V02H HC2016 11 07.16317 00 26 19.97 +32 09 02.7          21   GUEV067H21
     K16V02H  C2016 11 08.15343 00 39 39.08 +31 09 46.7          20.6 RoEV067926
     K16V02H  C2016 11 08.15670 00 39 41.51 +31 09 35.9          20.0 RoEV067926
     K16V02H  C2016 11 08.15997 00 39 43.96 +31 09 23.4          20.2 RoEV067926
 
Observer details:
926 Tenagra II Observatory.  Observers M. Schwartz, P. R. Holvorcem.  Measurer
    M. Schwartz.  0.81-m f/7 Ritchey-Chretien + CCD.
G96 Mt. Lemmon Survey.  Observer R. A. Kowalski.  Measurers E. J. Christensen,
    D. C. Fuls, A. R. Gibbs, A. D. Grauer, J. A. Johnson, R. A. Kowalski,
    S. M. Larson, G. J. Leonard, R. G. Matheny, R. L. Seaman, F. C. Shelly.
    1.5-m reflector + 10K CCD.
H21 Astronomical Research Observatory, Westfield.  Observer R. Holmes.
    Measurers L. Buzzi, T. Linder, S. Foglia, T. Vorobjov.  0.61-m f/4.0
    astrograph + CCD.
 
Orbital elements:
2016 VH2                                                 Earth MOID = 0.0638 AU
Epoch 2016 July 31.0 TT = JDT 2457600.5                 MPC
M 318.67507              (2000.0)            P               Q
n   0.49333381     Peri.  149.34895     +0.88906092     -0.44569261
a   1.5862640      Node   237.47750     +0.39084758     +0.85789392
e   0.3459866      Incl.    7.12208     +0.23834607     +0.25568753
P   2.00           H   25.0           G   0.15           U   7
Residuals in seconds of arc
161106 G96  0.6-  0.6+    161106 G96  0.1-  0.1-    161107 G96  0.2-  0.2-
161106 G96  0.0   0.1+    161107 926  0.1+  0.2-    161107 H21  0.1+  0.1-
161106 G96  0.4+  0.3-    161107 926  0.4+  0.1+    161107 H21  0.3-  0.0
161106 G96  0.1+  0.1-    161107 926  0.1-  0.3+    161108 926  0.0   0.6-
161106 G96  0.2-  0.0     161107 G96  0.1-  0.1+    161108 926  0.1-  0.6+
161106 G96  0.3-  0.0     161107 G96  0.1-  0.3-    161108 926  0.1+  0.1+
161106 G96  0.8+  0.2-    161107 G96  0.1+  0.2+

Ephemeris:
2016 VH2                 a,e,i = 1.59, 0.35, 7                   q = 1.0374
Date    TT    R. A. (2000) Decl.     Delta      r     Elong.  Phase     V
2016 10 10    20 20 05.4 +32 03 59   0.1188  1.0451   110.0    63.9    22.7
...
2016 10 25    21 46 06.3 +36 15 11   0.08455 1.0377   118.7    57.2    21.8
...
2016 11 02    23 16 17.2 +35 42 09   0.07263 1.0424   132.1    44.9    21.1
...
2016 11 08    00 37 33.7 +31 19 26   0.07049 1.0498   145.9    32.0    20.7
2016 11 09    00 50 41.8 +30 15 11   0.07086 1.0514   148.2    29.8    20.7
2016 11 10    01 03 27.8 +29 06 44   0.07145 1.0530   150.5    27.6    20.6
...
2016 11 16    02 09 27.9 +21 37 53   0.07943 1.0646   161.9    16.8    20.5
...
2016 11 24    03 08 00.6 +13 04 26   0.1002  1.0847   165.7    13.0    20.9
...
2016 12 09    04 03 24.4 +05 08 37   0.1602  1.1342   157.1    19.8    22.3

A. U. Tomatic                (C) Copyright 2016 MPC           M.P.E.C. 2016-V67




More information about the Iaude mailing list